DW9493 Weather Reports


Display with metric or nautical units.
time (UTC)temp
F
wind
direction
speed
MPH
gust
MPH
rain 1hr
in
rain 24hr
in
rain mn
in
humidity
%
barometer
mb
20260503020306 44 318 1.0 2.0 0.00 0.00 0.00 42 1022.2
20260503015307 46 311 0.0 1.0 0.00 0.00 0.00 41 1022.2
20260503014745 47 311 0.0 0.0 0.00 0.00 0.00 38 1022.0
20260503013304 48 312 0.0 2.0 0.00 0.00 0.00 38 1021.8
20260503012743 49 312 0.0 1.0 0.00 0.00 0.00 37 1021.8
20260503011301 53 312 0.0 2.0 0.00 0.00 0.00 30 1021.8
20260503010302 55 75 0.0 1.0 0.00 0.00 0.00 18 1021.6
20260503005300 56 55 0.0 3.0 0.00 0.00 0.00 16 1021.7
20260503004258 56 66 1.0 6.0 0.00 0.00 0.00 15 1021.6
20260503003258 57 29 1.0 6.0 0.00 0.00 0.00 15 1021.6
20260503002258 58 81 1.0 6.0 0.00 0.00 0.00 14 1021.7
20260503001735 58 65 2.0 5.0 0.00 0.00 0.00 15 1021.7
20260503000258 59 19 2.0 8.0 0.00 0.00 0.00 15 1021.7
20260502235258 59 119 1.0 6.0 0.00 0.00 0.00 15 1021.7
20260502234741 59 120 3.0 7.0 0.00 0.00 0.00 15 1021.7
20260502233257 59 79 3.0 8.0 0.00 0.00 0.00 16 1021.7
20260502232256 59 118 2.0 8.0 0.00 0.00 0.00 15 1021.8
20260502231255 59 56 2.0 7.0 0.00 0.00 0.00 17 1021.8
20260502230256 60 44 2.0 9.0 0.00 0.00 0.00 16 1021.8
20260502225256 61 116 3.0 8.0 0.00 0.00 0.00 16 1021.8
20260502224257 61 42 2.0 7.0 0.00 0.00 0.00 16 1021.7
20260502223257 61 338 2.0 7.0 0.00 0.00 0.00 16 1021.8
20260502222255 60 89 3.0 10.0 0.00 0.00 0.00 18 1022.0
20260502221226 60 32 4.0 8.0 0.00 0.00 0.00 18 1022.1
20260502220226 60 314 3.0 9.0 0.00 0.00 0.00 18 1022.2
20260502215225 60 45 4.0 11.0 0.00 0.00 0.00 20 1022.4
20260502214710 60 357 4.0 12.0 0.00 0.00 0.00 20 1022.5
20260502213227 60 56 4.0 10.0 0.00 0.00 0.00 21 1022.7
20260502212228 60 24 4.0 8.0 0.00 0.00 0.00 21 1022.9
20260502211713 61 19 3.0 11.0 0.00 0.00 0.00 20 1023.0
20260502211141 61 110 3.0 12.0 0.00 0.00 0.00 20 1023.1
20260502205221 60 133 2.0 13.0 0.00 0.00 0.00 21 1023.2
20260502204657 61 32 4.0 14.0 0.00 0.00 0.00 20 1023.4
20260502203703 61 90 3.0 9.0 0.00 0.00 0.00 20 1023.4
20260502202220 62 17 2.0 10.0 0.00 0.00 0.00 21 1023.5
20260502201220 60 89 2.0 13.0 0.00 0.00 0.00 21 1023.5
20260502200217 59 28 3.0 9.0 0.00 0.00 0.00 20 1023.6
20260502195219 59 45 3.0 8.0 0.00 0.00 0.00 20 1023.6
20260502194218 60 107 3.0 11.0 0.00 0.00 0.00 21 1023.6
20260502193218 60 235 3.0 9.0 0.00 0.00 0.00 20 1023.9
20260502192218 60 159 2.0 8.0 0.00 0.00 0.00 20 1023.9
20260502191216 59 156 3.0 7.0 0.00 0.00 0.00 21 1024.1
20260502190217 59 82 2.0 10.0 0.00 0.00 0.00 19 1024.1
20260502185200 57 32 3.0 11.0 0.00 0.00 0.00 21 1024.1
20260502184201 57 28 3.0 15.0 0.00 0.00 0.00 22 1024.2
20260502183642 58 150 3.0 10.0 0.00 0.00 0.00 18 1024.4
20260502182201 58 60 3.0 9.0 0.00 0.00 0.00 19 1024.5
20260502181159 59 140 2.0 8.0 0.00 0.00 0.00 19 1024.6
20260502180158 57 142 1.0 4.0 0.00 0.00 0.00 20 1024.7
20260502170158 55 210 2.0 6.0 0.00 0.01 0.00 21 1025.2
20260502164152 53 159 1.0 6.0 0.00 0.01 0.00 24 1025.1
20260502163153 51 286 2.0 7.0 0.00 0.01 0.00 24 1025.4
20260502162152 51 9 3.0 10.0 0.00 0.02 0.00 23 1025.2
20260502161153 52 267 1.0 6.0 0.00 0.02 0.00 24 1025.2
20260502160634 51 358 2.0 5.0 0.00 0.02 0.00 26 1025.4
20260502152151 48 326 3.0 9.0 0.00 0.03 0.00 28 1025.6
20260502151150 47 300 3.0 9.0 0.00 0.03 0.00 29 1025.8
20260502150151 47 359 2.0 7.0 0.00 0.03 0.00 30 1025.9
20260502130124 36 326 0.0 3.0 0.00 0.03 0.00 55 1025.8
20260502123125 31 249 0.0 1.0 0.00 0.03 0.00 65 1025.5
20260502122121 31 249 0.0 1.0 0.00 0.03 0.00 64 1025.5
20260502121122 31 240 0.0 0.0 0.00 0.03 0.00 65 1025.4
20260502120122 31 240 0.0 1.0 0.00 0.03 0.00 64 1025.4
20260502115122 31 267 0.0 2.0 0.00 0.03 0.00 66 1025.2
20260502114122 30 253 0.0 1.0 0.00 0.03 0.00 68 1025.4
20260502113124 31 255 0.0 2.0 0.00 0.03 0.00 68 1025.2
20260502112121 31 260 0.0 1.0 0.00 0.03 0.00 69 1025.2
20260502111120 30 307 0.0 1.0 0.00 0.03 0.00 70 1025.4
20260502110551 30 252 0.0 1.0 0.00 0.03 0.00 71 1025.2
20260502105120 30 270 0.0 2.0 0.00 0.03 0.00 72 1025.4
20260502104120 30 269 0.0 4.0 0.00 0.03 0.00 73 1025.4
20260502103120 29 297 0.0 4.0 0.00 0.03 0.00 75 1025.2
20260502102559 29 259 0.0 1.0 0.00 0.03 0.00 75 1025.2
20260502101104 29 209 0.0 0.0 0.00 0.03 0.00 75 1025.4
20260502091042 29 315 0.0 1.0 0.00 0.03 0.00 76 1025.1
20260502090516 29 315 0.0 0.0 0.00 0.03 0.00 74 1025.1
20260502071027 32 316 1.0 4.0 0.00 0.03 0.00 71 1025.6
20260502070500 32 318 2.0 7.0 0.00 0.03 0.00 71 1025.6
20260502065027 32 316 1.0 4.0 0.00 0.03 0.00 71 1025.6
20260502064010 32 311 1.0 3.0 0.00 0.03 0.00 72 1025.8
20260502063006 32 307 0.0 2.0 0.00 0.03 0.00 73 1025.8
20260502062920 33 318 1.0 4.0 0.00 0.03 0.00 71 1025.8
20260502061004 33 317 0.0 4.0 0.00 0.03 0.00 70 1025.8
20260502060000 33 239 0.0 1.0 0.00 0.03 0.03 70 1025.8
20260502054957 33 323 0.0 5.0 0.00 0.03 0.03 71 1025.8
20260502054435 33 313 0.0 4.0 0.00 0.03 0.03 70 1025.6
20260502052953 33 277 0.0 1.0 0.00 0.03 0.03 70 1025.6
20260502052439 34 262 0.0 4.0 0.00 0.03 0.03 70 1025.6
20260502050948 35 326 1.0 3.0 0.00 0.03 0.03 69 1025.6
20260502045949 35 316 2.0 5.0 0.00 0.03 0.03 68 1025.6
20260502044948 36 315 4.0 9.0 0.00 0.03 0.03 66 1025.5
20260502044424 36 307 2.0 8.0 0.00 0.03 0.03 65 1025.5
20260502042942 36 311 3.0 10.0 0.00 0.03 0.03 65 1025.4
20260502041943 35 305 1.0 5.0 0.00 0.03 0.03 66 1025.2
20260502040943 35 298 0.0 4.0 0.00 0.03 0.03 67 1025.2
20260502040418 36 266 0.0 1.0 0.00 0.03 0.03 66 1025.0
20260502034942 36 243 0.0 0.0 0.00 0.03 0.03 65 1025.0
20260502033942 37 243 0.0 1.0 0.00 0.03 0.03 65 1024.9
20260502032944 37 262 0.0 1.0 0.00 0.03 0.03 63 1024.6
20260502032414 37 262 0.0 1.0 0.00 0.03 0.03 63 1024.5
20260502030940 37 304 0.0 1.0 0.00 0.03 0.03 62 1024.4
20260502025941 37 262 0.0 3.0 0.00 0.03 0.03 63 1024.2
20260502025418 38 316 0.0 2.0 0.00 0.03 0.03 64 1024.1
20260502023938 39 281 0.0 1.0 0.00 0.03 0.03 60 1024.0
20260502022939 39 262 0.0 2.0 0.00 0.03 0.03 58 1023.9
20260502021938 39 263 1.0 4.0 0.00 0.03 0.03 58 1023.9